Powrót do katalogu

STARLINK-36834

AktywnyŁącznośćVLEO
NORAD 67959·PAYLOAD·🇺🇸 United States

Wystrzelony Feb 24, 2026 z Vandenberg Space Force Base

Loading…

Następne Przeloty (najbliższe 24 godziny)

TLE

ŚwieżeSource: CelesTrak SupGP

Epoka: Sep 14, 2026, 22:31 UTC

1 67959C 26037AD  26257.93868056 -.00004701  00000+0 -17026-3 0  2570
2 67959  43.0007 201.7083 0001366 267.7411 199.1743 15.27583195    18

Śledź STARLINK-36834 w czasie rzeczywistym z AllMySat

Download on the App Store